Location: Campillo
(40.8621°N, 4.2488°W)
Time: 12:47:32
(UTC+00:00)

Cosmos 1805 Rocket - Pass Details

Date: 11 May 2021
Orbit: 606 x 629 km, 82.5° (Epoch: 13 June)

Event Time Altitude Azimuth Distance (km) Brightness Sun altitude
Rises 20:28:18 0° 350° (N) 2,875 7.7 -11.3°
Reaches altitude 10° 20:30:32 10° 349° (N) 1,968 6.9 -11.6°
Maximum altitude 20:34:53 77° 264° (W) 632 3.7 -12.3°
Drops below altitude 10° 20:39:13 10° 179° (S) 1,964 5.8 -12.9°
Enters shadow 20:39:44 - 178° (S) 2,178 6.0 -13.0°
